#timestamp,LO_Frequency,Hit,StdDev 
1558288815.9,286046991.1,N
1558288835.7,286046991.0,N
1558288855.5,286046988.5,N
1558288875.4,286046988.9,N
1558288895.2,286046988.6,N
1558288915.1,286046990.9,N
1558288916.0,286046990.9,N
1558288935.8,286046990.6,Y
1558288955.6,286047003.7,P
1558288975.5,286047011.9,N
1558288995.3,286047003.1,N
1558289015.2,286047003.1,N
1558289035.9,286047003.5,N
1558289055.7,286047005.6,N
1558289075.6,286047007.4,N
1558289095.4,286047006.4,N
1558289115.2,286047006.9,N
1558289135.1,286047007.5,N
1558289136.0,286047007.5,N
1558289155.8,286047006.9,N
1558289175.7,286047007.5,N
1558289195.5,286047004.7,N
1558289215.3,286047005.8,N
1558289235.2,286047006.0,N
1558289255.0,286047003.6,N
1558289255.9,286047003.6,N
1558289275.7,286047003.7,N
1558289295.6,286047005.8,N
1558289315.4,286047007.1,N
1558289335.3,286047006.6,N
1558289385.1,286047006.4,E
1558289395.0,286047006.0,N
1558289395.9,286047006.0,P
1558289415.8,286047000.0,P
1558289435.6,286047001.5,N
1558289455.5,286047002.5,N
1558289475.3,286047000.1,N
1558289495.1,286046999.7,N
1558289515.9,286047002.3,N
1558289535.7,286046999.8,N
1558289555.5,286046999.9,N
1558289575.4,286047001.5,N
1558289595.2,286047004.4,N
1558289615.1,286047001.7,N
1558289616.0,286047001.7,N
1558289635.8,286047003.1,N
1558289655.6,286047005.9,N
1558289675.5,286047003.4,N
1558289695.3,286047003.1,N
1558289715.1,286047003.9,N
1558289735.9,286047001.7,N
1558289755.7,286047002.2,N
1558289775.6,286047000.3,N
1558289795.4,286046998.5,N
1558289815.2,286047001.1,N
1558289835.1,286047000.0,N
1558289836.0,286047000.0,N
1558289855.8,286047000.6,N
1558289875.6,286046999.7,N
1558289895.5,286047002.5,N
1558289915.3,286047002.8,N
1558289935.2,286047002.2,N
1558289955.9,286047002.4,N
1558289975.7,286047001.9,N
1558289995.6,286047001.5,N
1558290015.4,286047003.9,N
1558290035.2,286047003.8,N
1558290055.1,286047005.9,Y
1558290056.0,286047005.9,P
1558290075.8,286047000.1,N
1558290095.7,286046999.8,N
1558290115.5,286046998.3,N
1558290135.3,286046998.6,N
1558290155.2,286047001.1,N
1558290175.0,286047000.3,N
1558290175.9,286047000.3,N
1558290195.7,286047000.2,N
1558290215.6,286047002.8,N
1558290235.4,286047000.6,N
1558290255.3,286047000.4,N
1558290275.1,286047001.0,N
1558290276.0,286047001.0,N
1558290295.8,286046998.1,N
1558290315.7,286046999.0,N
1558290335.5,286046998.6,N
1558290355.3,286047002.7,N
1558290375.2,286047001.8,N
1558290395.0,286047002.6,N
1558290395.9,286047002.6,N
1558290415.8,286047002.1,N
1558290435.6,286047001.8,N
1558290455.4,286046999.7,N
1558290475.3,286047002.4,N
1558290495.1,286047000.0,N
1558290515.8,286046999.8,N
1558290535.7,286047002.0,N
1558290555.5,286047000.0,N
1558290575.4,286046999.9,N
1558290595.2,286047000.0,N
1558290615.0,286047000.4,N
1558290615.9,286047000.4,N
1558290635.8,286047000.2,N
1558290655.6,286046999.7,N
1558290675.4,286046999.8,N
1558290695.3,286047002.5,N
1558290715.1,286047002.4,N
1558290735.9,286047002.1,N
1558290755.7,286047002.3,N
1558290775.5,286047001.6,N
1558290795.4,286047002.6,N
1558290815.2,286046999.9,N
1558290865.1,286047000.1,E
1558290875.9,286047000.6,N
1558290895.7,286047001.2,P
1558290915.6,286046999.9,N
1558290935.4,286047001.2,N
1558290955.2,286047001.2,N
1558290975.1,286046998.7,N
1558290976.0,286046998.7,N
1558290995.8,286046999.2,N
1558291015.7,286046999.2,N
1558291035.5,286046997.4,N
1558291055.3,286046996.9,N
1558291075.2,286046996.8,N
1558291095.0,286046996.7,N
1558291095.9,286046996.7,N
1558291115.7,286046997.3,N
1558291135.6,286046996.7,N
1558291155.4,286046999.3,N
1558291175.3,286046999.3,N
1558291195.1,286046999.1,N
1558291215.8,286046998.6,N
1558291235.7,286046999.0,N
1558291255.5,286046998.1,N
1558291275.3,286047000.9,N
1558291295.2,286047000.2,N
1558291315.0,286047000.8,N
1558291315.9,286047000.8,N
1558291335.8,286046999.8,N
1558291355.6,286046999.9,N
1558291375.4,286046999.7,N
1558291395.3,286047002.5,N
1558291415.1,286047001.0,N
1558291435.9,286047000.3,N
1558291455.7,286047001.7,N
1558291475.5,286047001.6,N
1558291495.4,286047002.5,N
1558291515.2,286047002.1,N
1558291535.0,286047002.0,N
1558291535.9,286047002.0,N
1558291555.8,286047002.1,N
1558291575.6,286047002.8,N
1558291595.5,286046999.9,N
1558291615.3,286046999.9,N
1558291635.1,286046999.8,N
1558291655.9,286047000.9,N
1558291675.7,286047000.7,N
1558291695.5,286047001.0,N
1558291715.4,286047001.1,N
1558291735.2,286047000.9,N
1558291755.1,286047000.5,N
1558291756.0,286047000.5,N
1558291775.8,286047000.9,N
1558291795.6,286047000.4,N
1558291815.5,286047000.5,N
1558291835.3,286047000.7,N
1558291855.1,286046999.0,N
1558291875.9,286046999.0,N
1558291895.7,286046998.4,N
1558291915.6,286046998.9,N
1558291935.4,286047000.7,N
1558291955.2,286046999.0,N
1558291975.1,286046999.3,N
1558291976.0,286046999.3,N
1558291995.8,286046998.7,N
1558292015.7,286046998.1,N
1558292035.5,286046998.1,N
1558292055.3,286046998.4,N
1558292075.2,286046998.7,N
1558292095.9,286046998.9,N
1558292115.7,286046998.9,N
1558292135.6,286047011.9,Y
1558292155.4,286047000.6,P
1558292175.3,286047002.7,P
1558292195.1,286047002.1,N
1558292196.0,286047002.1,N
1558292215.8,286047000.2,N
1558292235.7,286047002.7,N
1558292255.5,286047000.1,N
1558292275.3,286047000.3,N
1558292295.2,286046999.8,N
1558292315.0,286046999.8,N
1558292315.9,286046999.8,N
1558292335.8,286046999.9,N
1558292355.6,286047000.0,N
1558292375.4,286047000.4,N
1558292395.3,286047000.6,N
